LC10 LGZA-LGST

Flight info

Callsign LC10
Flight time 0h 52m
Altitude 330
Route RESPA KAM MANOK ALIKI XAVIS LABU1J
Aircraft B733/M-V/N

Departure

Time 2026-04-25 06:37
Airport Zakynthos International Airport Dionysios Solomos (LGZA)

Arrival

Time 2026-04-25 07:29
Airport Sitia Airport (LGST)
Time Latitude Longitude Altitude Speed Heading
2026-04-25 06:31 37.75270 20.88588 7 ft 0 kts 347°
2026-04-25 06:33 37.75275 20.88586 7 ft 1 kts 345°
2026-04-25 06:33 37.75296 20.88579 7 ft 4 kts 345°
2026-04-25 06:34 37.75316 20.88530 7 ft 9 kts 261°
2026-04-25 06:34 37.75328 20.88452 7 ft 11 kts 335°
2026-04-25 06:34 37.75407 20.88424 7 ft 12 kts 342°
2026-04-25 06:34 37.75464 20.88344 7 ft 13 kts 285°
2026-04-25 06:35 37.75525 20.88252 7 ft 14 kts 340°
2026-04-25 06:35 37.75628 20.88214 7 ft 15 kts 343°
2026-04-25 06:35 37.75737 20.88172 7 ft 16 kts 343°
2026-04-25 06:35 37.75853 20.88128 7 ft 17 kts 343°
2026-04-25 06:36 37.75964 20.88082 7 ft 13 kts 320°
2026-04-25 06:36 37.76022 20.88032 7 ft 9 kts 34°
2026-04-25 06:36 37.76002 20.88073 7 ft 1 kts 162°
2026-04-25 06:36 37.75766 20.88160 7 ft 71 kts 163°
2026-04-25 06:37 37.75062 20.88422 7 ft 136 kts 163°
2026-04-25 06:37 37.74016 20.88822 157 ft 170 kts 161°
2026-04-25 06:37 37.72828 20.89358 394 ft 196 kts 158°
2026-04-25 06:37 37.71545 20.90043 1043 ft 199 kts 153°
2026-04-25 06:38 37.70348 20.90886 1724 ft 200 kts 154°
2026-04-25 06:38 37.69009 20.91116 2223 ft 202 kts 183°
2026-04-25 06:38 37.67587 20.91074 2741 ft 207 kts 180°
2026-04-25 06:38 37.66137 20.91129 3260 ft 212 kts 177°
2026-04-25 06:39 37.64625 20.91262 3653 ft 225 kts 175°
2026-04-25 06:39 37.63020 20.91464 3942 ft 240 kts 174°
2026-04-25 06:39 37.61342 20.91724 4210 ft 247 kts 173°
2026-04-25 06:39 37.59569 20.92032 4461 ft 269 kts 172°
2026-04-25 06:40 37.57690 20.92386 4973 ft 279 kts 172°
2026-04-25 06:40 37.55768 20.92765 5612 ft 284 kts 172°
2026-04-25 06:40 37.53823 20.93161 6271 ft 287 kts 172°
2026-04-25 06:40 37.51856 20.93568 6925 ft 290 kts 172°
2026-04-25 06:41 37.49868 20.93984 7572 ft 293 kts 172°
2026-04-25 06:41 37.47861 20.94406 8214 ft 296 kts 172°
2026-04-25 06:41 37.45837 20.94834 8849 ft 298 kts 173°
2026-04-25 06:41 37.43800 20.95273 9477 ft 300 kts 170°
2026-04-25 06:42 37.41891 20.96308 10064 ft 307 kts 143°
2026-04-25 06:42 37.40491 20.98401 10266 ft 326 kts 116°
2026-04-25 06:42 37.39595 21.01118 10379 ft 347 kts 112°
2026-04-25 06:42 37.38708 21.03967 10840 ft 354 kts 114°
2026-04-25 06:43 37.37806 21.06832 11584 ft 352 kts 114°
2026-04-25 06:43 37.36910 21.09653 12419 ft 347 kts 115°
2026-04-25 06:43 37.36017 21.12447 13136 ft 346 kts 114°
2026-04-25 06:43 37.35134 21.15201 13692 ft 348 kts 114°
2026-04-25 06:44 37.34224 21.18035 14185 ft 353 kts 115°
2026-04-25 06:44 37.33302 21.20899 14696 ft 356 kts 115°
2026-04-25 06:44 37.32373 21.23785 15208 ft 359 kts 115°
2026-04-25 06:44 37.31435 21.26692 15712 ft 362 kts 115°
2026-04-25 06:45 37.30488 21.29626 16198 ft 365 kts 115°
2026-04-25 06:45 37.29533 21.32582 16682 ft 368 kts 115°
2026-04-25 06:45 37.28569 21.35562 17152 ft 371 kts 115°
2026-04-25 06:45 37.27597 21.38563 17608 ft 374 kts 115°
2026-04-25 06:46 37.26617 21.41587 18058 ft 377 kts 115°
2026-04-25 06:46 37.25629 21.44632 18506 ft 379 kts 115°
2026-04-25 06:46 37.24632 21.47703 18938 ft 382 kts 115°
2026-04-25 06:46 37.23627 21.50793 19357 ft 385 kts 115°
2026-04-25 06:47 37.22613 21.53905 19775 ft 388 kts 115°
2026-04-25 06:47 37.21592 21.57041 20186 ft 391 kts 115°
2026-04-25 06:47 37.20562 21.60196 20581 ft 393 kts 115°
2026-04-25 06:47 37.19524 21.63376 20966 ft 396 kts 115°
2026-04-25 06:48 37.18478 21.66577 21324 ft 400 kts 116°
2026-04-25 06:48 37.17426 21.69803 21694 ft 402 kts 116°
2026-04-25 06:48 37.16367 21.73044 22086 ft 404 kts 116°
2026-04-25 06:48 37.15299 21.76303 22443 ft 407 kts 116°
2026-04-25 06:49 37.14223 21.79579 22799 ft 409 kts 116°
2026-04-25 06:49 37.13140 21.82874 23145 ft 412 kts 116°
2026-04-25 06:49 37.12048 21.86190 23470 ft 414 kts 116°
2026-04-25 06:49 37.10949 21.89526 23780 ft 418 kts 116°
2026-04-25 06:50 37.09837 21.92896 24053 ft 422 kts 116°
2026-04-25 06:50 37.08716 21.96292 24336 ft 425 kts 115°
2026-04-25 06:50 37.07584 21.99716 24613 ft 429 kts 115°
2026-04-25 06:50 37.06445 22.03168 24896 ft 432 kts 115°
2026-04-25 06:51 37.05317 22.06649 25181 ft 435 kts 114°
2026-04-25 06:51 37.04191 22.10167 25458 ft 438 kts 114°
2026-04-25 06:51 37.03062 22.13713 25727 ft 441 kts 114°
2026-04-25 06:51 37.01927 22.17279 26012 ft 444 kts 114°
2026-04-25 06:52 37.00786 22.20863 26287 ft 446 kts 114°
2026-04-25 06:52 36.99648 22.24433 26567 ft 448 kts 113°
2026-04-25 06:52 36.98488 22.28070 26836 ft 451 kts 113°
2026-04-25 06:52 36.97319 22.31727 27122 ft 453 kts 113°
2026-04-25 06:53 36.96142 22.35406 27387 ft 455 kts 113°
2026-04-25 06:53 36.94967 22.39074 27659 ft 457 kts 113°
2026-04-25 06:53 36.93789 22.42747 28015 ft 456 kts 113°
2026-04-25 06:53 36.92613 22.46410 28412 ft 455 kts 113°
2026-04-25 06:54 36.91441 22.50057 28798 ft 453 kts 113°
2026-04-25 06:54 36.90271 22.53690 29140 ft 452 kts 113°
2026-04-25 06:54 36.89095 22.57320 29426 ft 453 kts 114°
2026-04-25 06:54 36.87908 22.60957 29671 ft 454 kts 113°
2026-04-25 06:55 36.86726 22.64597 29942 ft 454 kts 113°
2026-04-25 06:55 36.85543 22.68255 30181 ft 455 kts 114°
2026-04-25 06:55 36.84358 22.71926 30488 ft 454 kts 114°
2026-04-25 06:55 36.83176 22.75571 30811 ft 452 kts 114°
2026-04-25 06:56 36.82003 22.79187 31118 ft 451 kts 114°
2026-04-25 06:56 36.80834 22.82781 31386 ft 450 kts 114°
2026-04-25 06:56 36.79650 22.86417 31578 ft 451 kts 114°
2026-04-25 06:56 36.78471 22.90031 31737 ft 452 kts 115°
2026-04-25 06:57 36.77287 22.93657 31902 ft 454 kts 114°
2026-04-25 06:57 36.76099 22.97293 32067 ft 455 kts 115°
2026-04-25 06:57 36.74907 23.00934 32237 ft 455 kts 115°
2026-04-25 06:57 36.73713 23.04578 32388 ft 456 kts 115°
2026-04-25 06:58 36.72514 23.08233 32534 ft 457 kts 115°
2026-04-25 06:58 36.71313 23.11891 32733 ft 457 kts 115°
2026-04-25 06:58 36.70114 23.15537 32931 ft 456 kts 115°
2026-04-25 06:59 36.67724 23.22792 33022 ft 452 kts 115°
2026-04-25 06:59 36.65351 23.29977 32988 ft 449 kts 115°
2026-04-25 07:00 36.62977 23.37144 32975 ft 450 kts 115°
2026-04-25 07:00 36.60592 23.44331 32964 ft 450 kts 115°
2026-04-25 07:01 36.58203 23.51510 32946 ft 450 kts 115°
2026-04-25 07:01 36.55811 23.58682 32938 ft 450 kts 115°
2026-04-25 07:02 36.53432 23.65799 32933 ft 450 kts 115°
2026-04-25 07:02 36.51035 23.72973 32938 ft 450 kts 115°
2026-04-25 07:03 36.48631 23.80138 32943 ft 450 kts 115°
2026-04-25 07:03 36.46219 23.87299 32941 ft 450 kts 115°
2026-04-25 07:04 36.43807 23.94445 32939 ft 450 kts 115°
2026-04-25 07:04 36.41406 24.01542 32941 ft 450 kts 115°
2026-04-25 07:05 36.38872 24.08623 32942 ft 450 kts 117°
2026-04-25 07:05 36.36295 24.15662 32939 ft 450 kts 117°
2026-04-25 07:06 36.33747 24.22722 32941 ft 450 kts 116°
2026-04-25 07:06 36.31201 24.29774 32942 ft 449 kts 116°
2026-04-25 07:07 36.28652 24.36820 32940 ft 449 kts 116°
2026-04-25 07:07 36.26098 24.43858 32939 ft 449 kts 116°
2026-04-25 07:08 36.23526 24.50927 32943 ft 449 kts 116°
2026-04-25 07:08 36.20961 24.57962 32948 ft 450 kts 116°
2026-04-25 07:09 36.18393 24.64993 32956 ft 450 kts 116°
2026-04-25 07:09 36.17110 24.68508 32831 ft 448 kts 117°
2026-04-25 07:09 36.15839 24.71991 32143 ft 447 kts 117°
2026-04-25 07:09 36.14555 24.75498 31199 ft 453 kts 117°
2026-04-25 07:10 36.13255 24.79039 30291 ft 457 kts 117°
2026-04-25 07:10 36.11946 24.82599 29455 ft 459 kts 117°
2026-04-25 07:10 36.10630 24.86174 28646 ft 460 kts 117°
2026-04-25 07:10 36.09310 24.89757 27837 ft 461 kts 117°
2026-04-25 07:11 36.07986 24.93345 27071 ft 460 kts 117°
2026-04-25 07:11 36.06670 24.96911 26455 ft 456 kts 117°
2026-04-25 07:11 36.05380 25.00402 25888 ft 451 kts 117°
2026-04-25 07:11 36.04062 25.03962 25234 ft 447 kts 117°
2026-04-25 07:12 36.02777 25.07428 24622 ft 443 kts 117°
2026-04-25 07:12 36.00242 25.14260 23511 ft 433 kts 117°
2026-04-25 07:12 35.98998 25.17609 22929 ft 429 kts 117°
2026-04-25 07:13 35.97762 25.20929 22343 ft 425 kts 117°
2026-04-25 07:13 35.96537 25.24217 21767 ft 421 kts 117°
2026-04-25 07:13 35.95324 25.27472 21200 ft 417 kts 117°
2026-04-25 07:13 35.94120 25.30697 20618 ft 414 kts 117°
2026-04-25 07:14 35.92879 25.33874 20043 ft 409 kts 123°
2026-04-25 07:14 35.91061 25.36442 19532 ft 395 kts 143°
2026-04-25 07:14 35.88936 25.38530 18996 ft 391 kts 145°
2026-04-25 07:14 35.86817 25.40575 18468 ft 387 kts 144°
2026-04-25 07:15 35.84729 25.42616 17957 ft 383 kts 144°
2026-04-25 07:15 35.82668 25.44645 17447 ft 379 kts 144°
2026-04-25 07:15 35.80628 25.46661 16935 ft 376 kts 144°
2026-04-25 07:15 35.78615 25.48653 16426 ft 372 kts 144°
2026-04-25 07:16 35.76617 25.50629 15896 ft 370 kts 144°
2026-04-25 07:16 35.74605 25.52618 15365 ft 367 kts 144°
2026-04-25 07:16 35.72638 25.54563 14883 ft 363 kts 144°
2026-04-25 07:16 35.70692 25.56488 14430 ft 358 kts 143°
2026-04-25 07:17 35.69044 25.58747 13952 ft 359 kts 121°
2026-04-25 07:17 35.67920 25.61469 13464 ft 357 kts 118°
2026-04-25 07:17 35.66848 25.64199 12974 ft 355 kts 118°
2026-04-25 07:17 35.65781 25.66905 12482 ft 352 kts 118°
2026-04-25 07:18 35.64719 25.69588 12013 ft 348 kts 118°
2026-04-25 07:18 35.63665 25.72240 11552 ft 345 kts 118°
2026-04-25 07:18 35.62619 25.74864 11092 ft 341 kts 118°
2026-04-25 07:18 35.61581 25.77462 10633 ft 338 kts 118°
2026-04-25 07:19 35.60552 25.80033 10182 ft 335 kts 118°
2026-04-25 07:19 35.59546 25.82547 9992 ft 322 kts 118°
2026-04-25 07:19 35.58578 25.84948 9929 ft 305 kts 121°
2026-04-25 07:19 35.57283 25.86834 9917 ft 280 kts 143°
2026-04-25 07:20 35.55803 25.88311 9691 ft 272 kts 144°
2026-04-25 07:20 35.54382 25.89714 9284 ft 272 kts 144°
2026-04-25 07:20 35.52862 25.91216 8821 ft 273 kts 144°
2026-04-25 07:20 35.51379 25.92687 8424 ft 272 kts 144°
2026-04-25 07:21 35.49926 25.94130 8092 ft 268 kts 144°
2026-04-25 07:21 35.48492 25.95554 7760 ft 264 kts 144°
2026-04-25 07:21 35.47075 25.96961 7426 ft 261 kts 144°
2026-04-25 07:21 35.45676 25.98349 7070 ft 259 kts 144°
2026-04-25 07:22 35.44288 25.99727 6741 ft 256 kts 144°
2026-04-25 07:22 35.42919 26.01086 6417 ft 252 kts 143°
2026-04-25 07:22 35.41750 26.02672 6079 ft 257 kts 119°
2026-04-25 07:22 35.41314 26.04836 5711 ft 271 kts 89°
2026-04-25 07:23 35.41622 26.07114 5282 ft 272 kts 81°
2026-04-25 07:23 35.41770 26.09388 4892 ft 269 kts 90°
2026-04-25 07:23 35.41813 26.11650 4714 ft 259 kts 91°
2026-04-25 07:23 35.41645 26.13778 4688 ft 242 kts 102°
2026-04-25 07:24 35.41362 26.15805 4690 ft 245 kts 102°
2026-04-25 07:24 35.40968 26.17829 4692 ft 240 kts 121°
2026-04-25 07:24 35.39864 26.19184 4646 ft 217 kts 161°
2026-04-25 07:24 35.38441 26.19435 4396 ft 206 kts 178°
2026-04-25 07:25 35.37093 26.19907 4047 ft 207 kts 146°
2026-04-25 07:25 35.35996 26.21150 3808 ft 219 kts 136°
2026-04-25 07:25 35.34959 26.22474 3700 ft 208 kts 136°
2026-04-25 07:25 35.33998 26.23713 3666 ft 195 kts 136°
2026-04-25 07:26 35.32953 26.24836 3720 ft 207 kts 156°
2026-04-25 07:26 35.31575 26.25162 3510 ft 204 kts 188°
2026-04-25 07:26 35.30315 26.24466 2882 ft 206 kts 223°
2026-04-25 07:26 35.29504 26.23012 2518 ft 208 kts 240°
2026-04-25 07:27 35.28833 26.21430 2412 ft 210 kts 241°
2026-04-25 07:27 35.28114 26.19857 2264 ft 212 kts 237°
2026-04-25 07:27 35.27316 26.18310 2075 ft 211 kts 232°
2026-04-25 07:27 35.26381 26.16932 1878 ft 209 kts 228°
2026-04-25 07:28 35.25442 26.15652 1593 ft 195 kts 227°
2026-04-25 07:28 35.24552 26.14466 1247 ft 184 kts 227°
2026-04-25 07:28 35.23761 26.13351 994 ft 161 kts 230°
2026-04-25 07:28 35.23092 26.12339 633 ft 149 kts 231°
2026-04-25 07:29 35.22469 26.11389 397 ft 136 kts 231°
2026-04-25 07:29 35.21849 26.10473 328 ft 136 kts 230°
2026-04-25 07:29 35.21361 26.09749 358 ft 86 kts 231°
2026-04-25 07:29 35.21086 26.09299 362 ft 47 kts 239°
2026-04-25 07:30 35.21037 26.09306 360 ft 13 kts 30°
2026-04-25 07:30 35.21112 26.09388 361 ft 15 kts 47°
2026-04-25 07:30 35.21201 26.09509 362 ft 23 kts 48°
2026-04-25 07:30 35.21312 26.09667 361 ft 25 kts 50°
2026-04-25 07:31 35.21444 26.09804 358 ft 22 kts
2026-04-25 07:31 35.21589 26.09831 358 ft 17 kts 30°
2026-04-25 07:31 35.21647 26.09843 346 ft 0 kts 338°